Regional Weather Roundup
Issued by NWS

Home | Current Version | Previous Version | Text Only | Print | Product List | Glossary Off
Versions: 1 2 3 4 5 6 7 8 9 10 11 12 13 14 15 16 17 18 19 20 21 22 23 24 25 26 27 28 29 30 31 32 33 34 35 36 37 38 39 40 41 42 43 44 45 46 47 48 49 50

000
ASUS43 KLMK 240810
RWRKY
KENTUCKY REGIONAL WEATHER ROUNDUP
NATIONAL WEATHER SERVICE LOUISVILLE KY
400 AM EDT SUN JUL 24 2016

NOTE "FAIR" INDICATES FEW OR NO CLOUDS BELOW 12,000 FEET
WITH NO SIGNIFICANT WEATHER AND/OR OBSTRUCTIONS TO VISIBILITY.

KYZ001>023-026-027-061>063-070>075-240900-
WESTERN AND SOUTH CENTRAL KENTUCKY

CITY           SKY/WX    TMP DP  RH WIND       PRES   REMARKS
PADUCAH        CLEAR     76  73  91 SE5       29.94F
HENDERSON      PTCLDY    75  72  88 CALM      29.95S
OWENSBORO      CLEAR     80  79  97 S5        29.97R
HOPKINSVILLE   CLEAR     76  75  95 E1        29.98R
BOWLING GREEN  CLOUDY    78  74  87 S3        29.99S
GLASGOW        CLEAR     74  74 100 CALM      29.99S
$$

KYZ024-025-028>034-038-045-046-053-240900-
NORTH CENTRAL KENTUCKY

CITY           SKY/WX    TMP DP  RH WIND       PRES   REMARKS
LOUISVILLE/SDF CLOUDY    81  76  84 SE3       29.98S
LOUISVILLE/LOU CLOUDY    81  75  82 S3        29.99S
FORT KNOX      CLOUDY    76  74  91 S2        29.98S
$$

KYZ035>037-039>044-047>052-055>060-089>105-240900-
NORTHEAST KENTUCKY

CITY           SKY/WX    TMP DP  RH WIND       PRES   REMARKS
LEXINGTON      CLEAR     75  71  87 S7        30.02R
COVINGTON      CLOUDY    73  72  96 S3        30.00F
FRANKFORT      CLEAR     75  72  90 CALM      30.00S
$$

KYZ054-064>069-076>088-106>120-240900-
SOUTHEAST KENTUCKY

CITY           SKY/WX    TMP DP  RH WIND       PRES   REMARKS
JACKSON        CLEAR     74  71  91 CALM      30.04S
LONDON         CLEAR     73  70  90 CALM      30.04S
SOMERSET       CLEAR     72  72 100 CALM      30.04S
MIDDLESBORO    MOCLDY    71  71 100 CALM      30.06S
MONTICELLO     SUNNY    N/A N/A N/A W3        30.04S
$$





USA.gov is the U.S. government's official web portal to all federal, state and local government web resources and services.